User: anonymous   Login
Location: Unspecified
(0.0000°N, 0.0000°E)
Time: 02:48:22
(UTC+00:00)
Language:

POPSAT HIP 1 - Orbit

View from above orbital plane
View from above orbital plane
View from above satellite
View from above satellite

Ground track
Ground track

The orbit data is extracted from the following two-line orbital elements,

1 40028U 14033U   17147.40237497 +.00000577 +00000-0 +68426-4 0  9990
2 40028 097.9177 058.7962 0014552 017.2976 342.8708 14.88273885159384
Epoch (UTC): 27 May 2017 09:39:25
Eccentricity: 0.0014552
inclination: 97.9177°
perigee height: 593 km
apogee height: 613 km
right ascension of ascending node: 58.7962°
argument of perigee: 17.2976°
revolutions per day: 14.88273885
mean anomaly at epoch: 342.8708°
orbit number at epoch: 15938

The dashed part of the orbit path shows where the satellite is in the earth's shadow,  

DLR